Regional Weather Roundup
Issued by NWS Charleston, WV

Home | Current Version | Previous Version | Text Only | Print | Product List | Glossary On
Versions: 1 2 3 4 5 6 7 8 9 10 11 12 13 14 15 16 17 18 19 20 21 22 23 24 25 26 27 28 29 30 31 32 33 34 35 36 37 38 39 40 41 42 43 44 45 46 47 48 49 50
000
ASUS41 KRLX 210210
RWRRLX
West Virginia Regional Weather Roundup
National Weather Service Charleston WV
1000 PM EDT SAT SEP 20 2014

Note: "fair" indicates few or no clouds below 12,000 feet with no
significant weather and/or obstructions to visibility.

WVZ003-210300-
Northern Panhandle of West Virginia

CITY           SKY/WX    TMP DP  RH WIND       PRES   REMARKS
WHEELING       CLEAR     68  60  75 S9        29.99S
$$

WVZ009-210300-
Northwest West Virginia

CITY           SKY/WX    TMP DP  RH WIND       PRES   REMARKS
PARKERSBURG    CLEAR     69  62  78 S6        30.03R
$$

WVZ006-210300-
Western West Virginia

CITY           SKY/WX    TMP DP  RH WIND       PRES   REMARKS
HUNTINGTON     CLEAR     66  64  93 SE5       30.01S
$$

WVZ015-210300-
West Central West Virginia

CITY           SKY/WX    TMP DP  RH WIND       PRES   REMARKS
CHARLESTON     CLEAR     67  65  93 CALM      30.03R
$$

WVZ031-210300-
North Central West Virginia

CITY           SKY/WX    TMP DP  RH WIND       PRES   REMARKS
CLARKSBURG     CLEAR     65  62  90 S3        30.03R
MORGANTOWN     CLEAR     70  60  70 SW3       30.04R
$$

WVZ035-042-045-210300-
South Central West Virginia

CITY           SKY/WX    TMP DP  RH WIND       PRES   REMARKS
BECKLEY        CLEAR     64  56  75 CALM      30.12R
BLUEFIELD      CLEAR     66  54  65 W3        30.14R
LEWISBURG      CLEAR     61  57  84 CALM      30.13R
$$

WVZ047-210300-
Northern Mountains of West Virginia

CITY           SKY/WX    TMP DP  RH WIND       PRES   REMARKS
ELKINS         PTCLDY    59  59 100 CALM      30.10R
$$

WVZ052-210300-
Eastern Panhandle of West Virginia

CITY           SKY/WX    TMP DP  RH WIND       PRES   REMARKS
MARTINSBURG    CLEAR     68  54  60 S5        30.06R
PETERSBURG     CLEAR     62  59  88 CALM      30.06R
$$


USA.gov is the U.S. government's official web portal to all federal, state and local government web resources and services.